| time (UTC) | temp F | wind direction | speed MPH | gust MPH | rain 1hr in | rain 24hr in | rain mn in | humidity % | barometer mb |
| 20260510070049 | 46 | 91 | 1.0 | 1.0 | 0.00 | 0.00 | 0.00 | 69 | 1013.9 |
| 20260510065545 | 46 | 58 | 0.0 | 0.0 | 0.00 | 0.00 | 0.00 | 69 | 1013.9 |
| 20260510065041 | 46 | 78 | 0.0 | 0.0 | 0.00 | 0.00 | 0.00 | 70 | 1014.0 |
| 20260510064537 | 46 | 72 | 1.0 | 1.0 | 0.00 | 0.00 | 0.00 | 69 | 1013.8 |
| 20260510064034 | 46 | 96 | 0.0 | 1.0 | 0.00 | 0.00 | 0.00 | 69 | 1013.9 |
| 20260510063531 | 46 | 125 | 0.0 | 1.0 | 0.00 | 0.00 | 0.00 | 69 | 1013.8 |
| 20260510063028 | 46 | 33 | 0.0 | 1.0 | 0.00 | 0.00 | 0.00 | 69 | 1013.8 |
| 20260510062524 | 47 | 91 | 0.0 | 1.0 | 0.00 | 0.00 | 0.00 | 69 | 1013.7 |
| 20260510062019 | 47 | 70 | 0.0 | 1.0 | 0.00 | 0.00 | 0.00 | 68 | 1014.0 |
| 20260510061516 | 47 | 43 | 2.0 | 3.0 | 0.00 | 0.00 | 0.00 | 68 | 1013.8 |
| 20260510061013 | 47 | 351 | 0.0 | 0.0 | 0.00 | 0.00 | 0.00 | 67 | 1013.6 |
| 20260510060509 | 48 | 53 | 0.0 | 1.0 | 0.00 | 0.00 | 0.00 | 67 | 1013.6 |
| 20260510060006 | 48 | 2 | 2.0 | 3.0 | 0.00 | 0.00 | 0.00 | 66 | 1013.5 |
| 20260510055501 | 49 | 353 | 0.0 | 1.0 | 0.00 | 0.00 | 0.00 | 64 | 1013.4 |
| 20260510055000 | 49 | 92 | 0.0 | 0.0 | 0.00 | 0.00 | 0.00 | 64 | 1013.5 |
| 20260510054455 | 49 | 347 | 3.0 | 3.0 | 0.00 | 0.00 | 0.00 | 64 | 1013.1 |
| 20260510053950 | 49 | 357 | 1.0 | 1.0 | 0.00 | 0.00 | 0.00 | 64 | 1012.9 |
| 20260510053445 | 49 | 97 | 0.0 | 1.0 | 0.00 | 0.00 | 0.00 | 67 | 1012.9 |
| 20260510052942 | 47 | 58 | 1.0 | 1.0 | 0.00 | 0.00 | 0.00 | 69 | 1012.5 |
| 20260510052438 | 44 | 353 | 2.0 | 3.0 | 0.00 | 0.00 | 0.00 | 84 | 1012.2 |
| 20260510051934 | 44 | 265 | 0.0 | 0.0 | 0.00 | 0.00 | 0.00 | 83 | 1012.0 |
| 20260510051431 | 44 | 265 | 0.0 | 0.0 | 0.00 | 0.00 | 0.00 | 83 | 1011.9 |
| 20260510050927 | 44 | 265 | 0.0 | 0.0 | 0.00 | 0.00 | 0.00 | 82 | 1012.0 |
| 20260510050424 | 44 | 265 | 0.0 | 1.0 | 0.00 | 0.00 | 0.00 | 82 | 1012.0 |
| 20260510045921 | 44 | 265 | 1.0 | 1.0 | 0.00 | 0.00 | 0.00 | 82 | 1012.0 |
| 20260510045419 | 45 | 265 | 1.0 | 1.0 | 0.00 | 0.00 | 0.00 | 82 | 1011.9 |
| 20260510044915 | 45 | 265 | 1.0 | 1.0 | 0.00 | 0.00 | 0.00 | 81 | 1011.7 |
| 20260510044412 | 45 | 265 | 1.0 | 1.0 | 0.00 | 0.00 | 0.00 | 81 | 1011.6 |
| 20260510043909 | 45 | 265 | 1.0 | 1.0 | 0.00 | 0.00 | 0.00 | 82 | 1011.5 |
| 20260510043405 | 45 | 265 | 1.0 | 1.0 | 0.00 | 0.00 | 0.00 | 81 | 1011.6 |
| 20260510042903 | 45 | 265 | 1.0 | 1.0 | 0.00 | 0.00 | 0.00 | 81 | 1011.5 |
| 20260510042359 | 45 | 265 | 1.0 | 1.0 | 0.00 | 0.00 | 0.00 | 80 | 1011.3 |
| 20260510041854 | 45 | 264 | 0.0 | 0.0 | 0.00 | 0.00 | 0.00 | 81 | 1011.4 |
| 20260510041352 | 45 | 265 | 0.0 | 1.0 | 0.00 | 0.00 | 0.00 | 80 | 1011.2 |
| 20260510040849 | 46 | 264 | 0.0 | 1.0 | 0.00 | 0.00 | 0.00 | 79 | 1011.3 |
| 20260510040346 | 46 | 264 | 1.0 | 1.0 | 0.00 | 0.00 | 0.00 | 79 | 1011.4 |
| 20260510035841 | 46 | 264 | 0.0 | 0.0 | 0.00 | 0.00 | 0.00 | 79 | 1011.1 |
| 20260510035338 | 46 | 264 | 0.0 | 1.0 | 0.00 | 0.00 | 0.00 | 79 | 1011.0 |
| 20260510034833 | 46 | 258 | 1.0 | 1.0 | 0.00 | 0.00 | 0.00 | 79 | 1011.1 |
| 20260510034332 | 46 | 257 | 1.0 | 1.0 | 0.00 | 0.00 | 0.00 | 78 | 1011.0 |
| 20260510033828 | 47 | 249 | 1.0 | 1.0 | 0.00 | 0.00 | 0.00 | 78 | 1010.9 |
| 20260510033325 | 47 | 253 | 1.0 | 1.0 | 0.00 | 0.00 | 0.00 | 77 | 1010.7 |
| 20260510032821 | 48 | 244 | 1.0 | 1.0 | 0.00 | 0.00 | 0.00 | 77 | 1010.6 |
| 20260510032318 | 48 | 243 | 1.0 | 1.0 | 0.00 | 0.00 | 0.00 | 75 | 1010.4 |
| 20260510031813 | 48 | 243 | 1.0 | 1.0 | 0.00 | 0.00 | 0.00 | 75 | 1010.6 |
| 20260510031309 | 48 | 243 | 0.0 | 0.0 | 0.00 | 0.00 | 0.00 | 74 | 1010.4 |
| 20260510030803 | 48 | 243 | 0.0 | 0.0 | 0.00 | 0.00 | 0.00 | 72 | 1010.4 |
| 20260510030300 | 49 | 243 | 0.0 | 0.0 | 0.00 | 0.00 | 0.00 | 72 | 1010.2 |
| 20260510025757 | 49 | 243 | 0.0 | 0.0 | 0.00 | 0.00 | 0.00 | 70 | 1010.4 |
| 20260510025255 | 49 | 243 | 0.0 | 0.0 | 0.00 | 0.00 | 0.00 | 70 | 1010.3 |
| 20260510024751 | 49 | 242 | 0.0 | 0.0 | 0.00 | 0.00 | 0.00 | 70 | 1010.3 |
| 20260510024248 | 50 | 243 | 0.0 | 0.0 | 0.00 | 0.00 | 0.00 | 70 | 1010.1 |
| 20260510023743 | 50 | 243 | 0.0 | 0.0 | 0.00 | 0.00 | 0.00 | 68 | 1010.2 |
| 20260510023235 | 50 | 242 | 0.0 | 0.0 | 0.00 | 0.00 | 0.00 | 68 | 1009.9 |
| 20260510022732 | 51 | 242 | 0.0 | 1.0 | 0.00 | 0.00 | 0.00 | 68 | 1009.9 |
| 20260510022231 | 51 | 242 | 0.0 | 1.0 | 0.00 | 0.00 | 0.00 | 66 | 1009.7 |
| 20260510021726 | 52 | 241 | 0.0 | 0.0 | 0.00 | 0.00 | 0.00 | 64 | 1009.8 |
| 20260510021224 | 53 | 242 | 0.0 | 0.0 | 0.00 | 0.00 | 0.00 | 63 | 1009.5 |
| 20260510020719 | 53 | 241 | 1.0 | 1.0 | 0.00 | 0.00 | 0.00 | 63 | 1009.6 |
| 20260510020214 | 53 | 242 | 0.0 | 0.0 | 0.00 | 0.00 | 0.00 | 62 | 1009.3 |
| 20260510015710 | 54 | 230 | 1.0 | 1.0 | 0.00 | 0.00 | 0.00 | 61 | 1009.2 |
| 20260510015201 | 55 | 122 | 0.0 | 0.0 | 0.00 | 0.00 | 0.00 | 58 | 1009.2 |
| 20260510014701 | 55 | 141 | 0.0 | 0.0 | 0.00 | 0.00 | 0.00 | 58 | 1009.2 |
| 20260510014159 | 55 | 109 | 0.0 | 0.0 | 0.00 | 0.00 | 0.00 | 58 | 1008.9 |
| 20260510013654 | 56 | 147 | 1.0 | 1.0 | 0.00 | 0.00 | 0.00 | 55 | 1008.8 |
| 20260510013150 | 57 | 130 | 0.0 | 1.0 | 0.00 | 0.00 | 0.00 | 55 | 1008.6 |
| 20260510012650 | 59 | 144 | 1.0 | 1.0 | 0.00 | 0.00 | 0.00 | 52 | 1008.4 |
| 20260510012146 | 60 | 52 | 1.0 | 2.0 | 0.00 | 0.00 | 0.00 | 50 | 1008.6 |
| 20260510011641 | 60 | 286 | 1.0 | 1.0 | 0.00 | 0.00 | 0.00 | 51 | 1008.2 |
| 20260510011137 | 60 | 357 | 3.0 | 3.0 | 0.00 | 0.00 | 0.00 | 50 | 1008.0 |
| 20260510010633 | 61 | 21 | 3.0 | 3.0 | 0.00 | 0.00 | 0.00 | 49 | 1007.9 |
| 20260510010130 | 61 | 312 | 0.0 | 1.0 | 0.00 | 0.00 | 0.00 | 49 | 1007.7 |
| 20260510005625 | 61 | 126 | 1.0 | 2.0 | 0.00 | 0.00 | 0.00 | 49 | 1007.8 |
| 20260510005123 | 62 | 339 | 2.0 | 3.0 | 0.00 | 0.00 | 0.00 | 48 | 1007.5 |
| 20260510004621 | 62 | 110 | 1.0 | 2.0 | 0.00 | 0.00 | 0.00 | 47 | 1007.6 |
| 20260510004118 | 62 | 295 | 0.0 | 1.0 | 0.00 | 0.00 | 0.00 | 48 | 1007.3 |
| 20260510003615 | 63 | 299 | 0.0 | 1.0 | 0.00 | 0.00 | 0.00 | 48 | 1007.4 |
| 20260510003111 | 63 | 1 | 2.0 | 5.0 | 0.00 | 0.00 | 0.00 | 47 | 1007.3 |
| 20260510002606 | 64 | 322 | 1.0 | 1.0 | 0.00 | 0.00 | 0.00 | 47 | 1007.2 |
| 20260510002103 | 64 | 64 | 0.0 | 1.0 | 0.00 | 0.00 | 0.00 | 47 | 1007.0 |
| 20260510001601 | 64 | 335 | 3.0 | 9.0 | 0.00 | 0.00 | 0.00 | 46 | 1006.8 |
| 20260510001059 | 64 | 257 | 2.0 | 2.0 | 0.00 | 0.00 | 0.00 | 46 | 1006.8 |
| 20260510000559 | 65 | 281 | 2.0 | 2.0 | 0.00 | 0.00 | 0.00 | 46 | 1006.6 |
| 20260510000056 | 65 | 304 | 2.0 | 2.0 | 0.00 | 0.00 | 0.00 | 46 | 1006.2 |
| 20260509235553 | 66 | 4 | 4.0 | 6.0 | 0.00 | 0.00 | 0.00 | 45 | 1006.5 |
| 20260509235050 | 66 | 9 | 6.0 | 9.0 | 0.00 | 0.00 | 0.00 | 45 | 1006.3 |
| 20260509234546 | 66 | 239 | 1.0 | 1.0 | 0.00 | 0.00 | 0.00 | 44 | 1006.1 |
| 20260509234044 | 66 | 248 | 1.0 | 2.0 | 0.00 | 0.00 | 0.00 | 44 | 1006.1 |
| 20260509233541 | 66 | 279 | 3.0 | 3.0 | 0.00 | 0.00 | 0.00 | 45 | 1006.1 |
| 20260509233038 | 66 | 93 | 0.0 | 0.0 | 0.00 | 0.00 | 0.00 | 44 | 1005.9 |
| 20260509232535 | 67 | 216 | 3.0 | 3.0 | 0.00 | 0.00 | 0.00 | 44 | 1005.7 |
| 20260509232032 | 68 | 200 | 1.0 | 2.0 | 0.00 | 0.00 | 0.00 | 43 | 1005.7 |
| 20260509231528 | 68 | 277 | 2.0 | 2.0 | 0.00 | 0.00 | 0.00 | 42 | 1005.8 |
| 20260509231026 | 69 | 105 | 2.0 | 2.0 | 0.00 | 0.00 | 0.00 | 41 | 1005.8 |
| 20260509230522 | 70 | 227 | 1.0 | 2.0 | 0.00 | 0.00 | 0.00 | 41 | 1005.5 |
| 20260509230019 | 70 | 266 | 0.0 | 0.0 | 0.00 | 0.00 | 0.00 | 39 | 1005.5 |
| 20260509225515 | 70 | 313 | 4.0 | 5.0 | 0.00 | 0.00 | 0.00 | 39 | 1005.3 |
| 20260509225010 | 69 | 196 | 0.0 | 1.0 | 0.00 | 0.00 | 0.00 | 40 | 1005.5 |
| 20260509224507 | 69 | 292 | 1.0 | 2.0 | 0.00 | 0.00 | 0.00 | 40 | 1005.3 |
| 20260509224003 | 69 | 45 | 2.0 | 2.0 | 0.00 | 0.00 | 0.00 | 38 | 1005.2 |
| 20260509223500 | 70 | 267 | 2.0 | 3.0 | 0.00 | 0.00 | 0.00 | 39 | 1005.3 |
| 20260509222958 | 70 | 293 | 4.0 | 7.0 | 0.00 | 0.00 | 0.00 | 37 | 1004.9 |
| 20260509222453 | 70 | 315 | 2.0 | 3.0 | 0.00 | 0.00 | 0.00 | 38 | 1005.1 |
| 20260509221949 | 71 | 287 | 2.0 | 3.0 | 0.00 | 0.00 | 0.00 | 38 | 1004.9 |
| 20260509221445 | 71 | 279 | 2.0 | 3.0 | 0.00 | 0.00 | 0.00 | 36 | 1004.8 |
| 20260509220941 | 71 | 252 | 3.0 | 3.0 | 0.00 | 0.00 | 0.00 | 35 | 1004.8 |
| 20260509220438 | 71 | 267 | 3.0 | 3.0 | 0.00 | 0.00 | 0.00 | 35 | 1004.6 |
| 20260509215934 | 71 | 12 | 7.0 | 10.0 | 0.00 | 0.00 | 0.00 | 35 | 1004.4 |
| 20260509215429 | 72 | 292 | 4.0 | 6.0 | 0.00 | 0.00 | 0.00 | 35 | 1004.3 |
| 20260509214927 | 72 | 279 | 3.0 | 5.0 | 0.00 | 0.00 | 0.00 | 36 | 1004.3 |
| 20260509214424 | 71 | 193 | 1.0 | 2.0 | 0.00 | 0.00 | 0.00 | 35 | 1004.3 |
| 20260509213921 | 71 | 198 | 4.0 | 6.0 | 0.00 | 0.00 | 0.00 | 35 | 1004.3 |
| 20260509213416 | 72 | 255 | 4.0 | 6.0 | 0.00 | 0.00 | 0.00 | 36 | 1004.1 |
| 20260509212914 | 72 | 261 | 1.0 | 2.0 | 0.00 | 0.00 | 0.00 | 38 | 1004.4 |
| 20260509212412 | 72 | 281 | 2.0 | 2.0 | 0.00 | 0.00 | 0.00 | 39 | 1004.2 |
| 20260509211908 | 72 | 255 | 5.0 | 7.0 | 0.00 | 0.00 | 0.00 | 35 | 1004.1 |
| 20260509211403 | 71 | 325 | 9.0 | 15.0 | 0.00 | 0.00 | 0.00 | 35 | 1004.1 |
| 20260509210900 | 72 | 321 | 4.0 | 7.0 | 0.00 | 0.00 | 0.00 | 37 | 1004.0 |
| 20260509210357 | 73 | 276 | 1.0 | 1.0 | 0.00 | 0.00 | 0.00 | 37 | 1003.8 |
| 20260509205852 | 73 | 311 | 7.0 | 13.0 | 0.00 | 0.00 | 0.00 | 34 | 1003.7 |
| 20260509205346 | 73 | 309 | 3.0 | 3.0 | 0.00 | 0.00 | 0.00 | 38 | 1003.8 |
| 20260509204844 | 73 | 290 | 2.0 | 5.0 | 0.00 | 0.00 | 0.00 | 36 | 1003.5 |
| 20260509204340 | 73 | 265 | 3.0 | 9.0 | 0.00 | 0.00 | 0.00 | 35 | 1003.6 |
| 20260509203836 | 73 | 296 | 4.0 | 6.0 | 0.00 | 0.00 | 0.00 | 34 | 1003.2 |
| 20260509203333 | 72 | 296 | 2.0 | 3.0 | 0.00 | 0.00 | 0.00 | 37 | 1003.5 |
| 20260509202829 | 73 | 292 | 3.0 | 5.0 | 0.00 | 0.00 | 0.00 | 37 | 1003.4 |
| 20260509202326 | 72 | 271 | 2.0 | 3.0 | 0.00 | 0.00 | 0.00 | 40 | 1003.4 |
| 20260509201825 | 71 | 212 | 1.0 | 2.0 | 0.00 | 0.00 | 0.00 | 42 | 1003.3 |
| 20260509201322 | 73 | 292 | 5.0 | 7.0 | 0.00 | 0.00 | 0.00 | 38 | 1003.7 |
| 20260509200818 | 73 | 41 | 2.0 | 3.0 | 0.00 | 0.00 | 0.00 | 42 | 1003.7 |
| 20260509200314 | 73 | 277 | 6.0 | 10.0 | 0.00 | 0.00 | 0.00 | 38 | 1003.6 |
| 20260509195810 | 73 | 279 | 1.0 | 1.0 | 0.00 | 0.00 | 0.00 | 41 | 1003.4 |
| 20260509195306 | 71 | 301 | 2.0 | 2.0 | 0.00 | 0.00 | 0.00 | 39 | 1003.5 |
| 20260509194805 | 71 | 285 | 0.0 | 1.0 | 0.00 | 0.00 | 0.00 | 42 | 1003.5 |
| 20260509194301 | 72 | 265 | 3.0 | 3.0 | 0.00 | 0.00 | 0.00 | 38 | 1003.3 |
| 20260509193758 | 72 | 285 | 3.0 | 6.0 | 0.00 | 0.00 | 0.00 | 39 | 1003.3 |
| 20260509193258 | 72 | 290 | 3.0 | 5.0 | 0.00 | 0.00 | 0.00 | 39 | 1003.6 |
| 20260509192754 | 72 | 275 | 4.0 | 6.0 | 0.00 | 0.00 | 0.00 | 38 | 1003.5 |
| 20260509192250 | 72 | 234 | 7.0 | 10.0 | 0.00 | 0.00 | 0.00 | 38 | 1003.5 |
| 20260509191745 | 72 | 262 | 8.0 | 10.0 | 0.00 | 0.00 | 0.00 | 38 | 1003.3 |
| 20260509191242 | 71 | 248 | 3.0 | 6.0 | 0.00 | 0.00 | 0.00 | 40 | 1003.5 |
| 20260509190738 | 72 | 279 | 5.0 | 8.0 | 0.00 | 0.00 | 0.00 | 39 | 1003.3 |
| 20260509190235 | 72 | 287 | 3.0 | 5.0 | 0.00 | 0.00 | 0.00 | 38 | 1003.4 |
| 20260509185732 | 73 | 321 | 5.0 | 6.0 | 0.00 | 0.00 | 0.00 | 37 | 1003.5 |
| 20260509185229 | 73 | 296 | 3.0 | 5.0 | 0.00 | 0.00 | 0.00 | 40 | 1003.3 |
| 20260509184726 | 71 | 217 | 4.0 | 6.0 | 0.00 | 0.00 | 0.00 | 41 | 1003.1 |
| 20260509184224 | 72 | 287 | 5.0 | 10.0 | 0.00 | 0.00 | 0.00 | 39 | 1003.5 |
| 20260509183720 | 71 | 248 | 3.0 | 5.0 | 0.00 | 0.00 | 0.00 | 38 | 1003.0 |
| 20260509183215 | 71 | 255 | 4.0 | 6.0 | 0.00 | 0.00 | 0.00 | 38 | 1003.2 |
| 20260509182711 | 72 | 249 | 1.0 | 2.0 | 0.00 | 0.00 | 0.00 | 42 | 1003.1 |
| 20260509182208 | 70 | 212 | 2.0 | 2.0 | 0.00 | 0.00 | 0.00 | 38 | 1003.3 |
| 20260509181706 | 71 | 304 | 4.0 | 7.0 | 0.00 | 0.00 | 0.00 | 41 | 1003.3 |
| 20260509181203 | 70 | 290 | 3.0 | 3.0 | 0.00 | 0.00 | 0.00 | 43 | 1003.3 |
| 20260509180700 | 67 | 248 | 1.0 | 1.0 | 0.00 | 0.00 | 0.00 | 42 | 1003.4 |
| 20260509180156 | 66 | 250 | 1.0 | 2.0 | 0.00 | 0.00 | 0.00 | 43 | 1003.5 |
| 20260509175653 | 66 | 211 | 2.0 | 3.0 | 0.00 | 0.00 | 0.00 | 42 | 1003.8 |
| 20260509175149 | 66 | 186 | 1.0 | 2.0 | 0.00 | 0.00 | 0.00 | 43 | 1003.7 |
| 20260509174645 | 67 | 247 | 1.0 | 2.0 | 0.00 | 0.00 | 0.00 | 44 | 1003.6 |
| 20260509174140 | 68 | 317 | 1.0 | 1.0 | 0.00 | 0.00 | 0.00 | 45 | 1003.6 |
| 20260509173636 | 71 | 243 | 1.0 | 2.0 | 0.00 | 0.00 | 0.00 | 43 | 1003.6 |
| 20260509173132 | 71 | 159 | 2.0 | 2.0 | 0.00 | 0.00 | 0.00 | 41 | 1003.7 |
| 20260509172629 | 69 | 310 | 3.0 | 3.0 | 0.00 | 0.00 | 0.00 | 41 | 1004.0 |
| 20260509172125 | 67 | 324 | 2.0 | 7.0 | 0.00 | 0.00 | 0.00 | 46 | 1003.8 |
| 20260509171621 | 67 | 236 | 1.0 | 2.0 | 0.00 | 0.00 | 0.00 | 44 | 1004.1 |
| 20260509171117 | 67 | 338 | 3.0 | 3.0 | 0.00 | 0.00 | 0.00 | 41 | 1003.8 |
| 20260509170614 | 67 | 217 | 1.0 | 2.0 | 0.00 | 0.00 | 0.00 | 43 | 1003.8 |
| 20260509170110 | 68 | 262 | 1.0 | 3.0 | 0.00 | 0.00 | 0.00 | 43 | 1003.8 |
| 20260509165608 | 68 | 306 | 3.0 | 6.0 | 0.00 | 0.00 | 0.00 | 42 | 1003.8 |
| 20260509165104 | 69 | 258 | 3.0 | 5.0 | 0.00 | 0.00 | 0.00 | 43 | 1003.8 |
| 20260509164600 | 69 | 188 | 0.0 | 1.0 | 0.00 | 0.00 | 0.00 | 48 | 1003.8 |
| 20260509164055 | 68 | 110 | 1.0 | 2.0 | 0.00 | 0.00 | 0.00 | 48 | 1004.0 |
| 20260509163554 | 67 | 227 | 0.0 | 0.0 | 0.00 | 0.00 | 0.00 | 49 | 1003.9 |
| 20260509163049 | 68 | 128 | 3.0 | 5.0 | 0.00 | 0.00 | 0.00 | 51 | 1003.7 |
| 20260509162546 | 67 | 272 | 1.0 | 2.0 | 0.00 | 0.00 | 0.00 | 52 | 1003.9 |
| 20260509162042 | 66 | 239 | 0.0 | 1.0 | 0.00 | 0.00 | 0.00 | 53 | 1003.8 |
| 20260509161539 | 66 | 253 | 2.0 | 2.0 | 0.00 | 0.00 | 0.00 | 51 | 1003.7 |
| 20260509161033 | 66 | 222 | 4.0 | 5.0 | 0.00 | 0.00 | 0.00 | 54 | 1003.7 |
| 20260509160530 | 66 | 225 | 2.0 | 3.0 | 0.00 | 0.00 | 0.00 | 56 | 1003.7 |
| 20260509160025 | 66 | 258 | 3.0 | 3.0 | 0.00 | 0.00 | 0.00 | 56 | 1003.8 |
| 20260509155521 | 66 | 299 | 3.0 | 3.0 | 0.00 | 0.00 | 0.00 | 57 | 1003.6 |
| 20260509155018 | 65 | 257 | 1.0 | 1.0 | 0.00 | 0.00 | 0.00 | 57 | 1003.8 |
| 20260509154514 | 65 | 76 | 0.0 | 1.0 | 0.00 | 0.00 | 0.00 | 57 | 1003.7 |
| 20260509154012 | 65 | 274 | 1.0 | 2.0 | 0.00 | 0.00 | 0.00 | 58 | 1003.8 |
| 20260509153508 | 65 | 257 | 1.0 | 2.0 | 0.00 | 0.00 | 0.00 | 59 | 1003.5 |
| 20260509153005 | 65 | 264 | 5.0 | 6.0 | 0.00 | 0.00 | 0.00 | 56 | 1003.7 |
| 20260509152501 | 66 | 293 | 3.0 | 5.0 | 0.00 | 0.00 | 0.00 | 57 | 1003.5 |
| 20260509151958 | 66 | 277 | 4.0 | 5.0 | 0.00 | 0.00 | 0.00 | 57 | 1003.6 |
| 20260509151454 | 66 | 317 | 5.0 | 5.0 | 0.00 | 0.00 | 0.00 | 57 | 1003.6 |
| 20260509150953 | 66 | 244 | 3.0 | 3.0 | 0.00 | 0.00 | 0.00 | 59 | 1003.4 |
| 20260509150449 | 66 | 259 | 3.0 | 5.0 | 0.00 | 0.00 | 0.00 | 60 | 1003.5 |
| 20260509145948 | 67 | 262 | 2.0 | 3.0 | 0.00 | 0.00 | 0.00 | 62 | 1003.4 |
| 20260509145443 | 65 | 185 | 2.0 | 3.0 | 0.00 | 0.00 | 0.00 | 64 | 1003.6 |
| 20260509144938 | 65 | 216 | 3.0 | 3.0 | 0.00 | 0.00 | 0.00 | 61 | 1003.4 |
| 20260509144436 | 65 | 336 | 2.0 | 2.0 | 0.00 | 0.00 | 0.00 | 66 | 1003.1 |
| 20260509143932 | 64 | 278 | 1.0 | 1.0 | 0.00 | 0.00 | 0.00 | 65 | 1003.2 |
| 20260509143430 | 63 | 254 | 3.0 | 3.0 | 0.00 | 0.00 | 0.00 | 66 | 1003.4 |
| 20260509142926 | 64 | 269 | 3.0 | 3.0 | 0.00 | 0.00 | 0.00 | 67 | 1003.5 |
| 20260509142423 | 63 | 233 | 1.0 | 2.0 | 0.00 | 0.00 | 0.00 | 69 | 1003.3 |
| 20260509141918 | 62 | 235 | 1.0 | 2.0 | 0.00 | 0.00 | 0.00 | 70 | 1003.4 |
| 20260509141416 | 62 | 284 | 4.0 | 6.0 | 0.00 | 0.00 | 0.00 | 70 | 1003.2 |
| 20260509140912 | 62 | 267 | 1.0 | 2.0 | 0.00 | 0.00 | 0.00 | 74 | 1003.3 |
| 20260509140408 | 61 | 283 | 2.0 | 3.0 | 0.00 | 0.00 | 0.00 | 74 | 1003.1 |
| 20260509135907 | 61 | 159 | 2.0 | 2.0 | 0.00 | 0.00 | 0.00 | 75 | 1003.1 |
| 20260509135404 | 60 | 115 | 0.0 | 0.0 | 0.00 | 0.00 | 0.00 | 76 | 1003.2 |
| 20260509134901 | 61 | 187 | 0.0 | 0.0 | 0.00 | 0.00 | 0.00 | 76 | 1003.0 |
| 20260509134359 | 60 | 264 | 2.0 | 2.0 | 0.00 | 0.00 | 0.00 | 77 | 1003.1 |
| 20260509133855 | 60 | 247 | 3.0 | 3.0 | 0.00 | 0.00 | 0.00 | 77 | 1003.0 |
| 20260509133352 | 60 | 247 | 3.0 | 5.0 | 0.00 | 0.00 | 0.00 | 78 | 1003.0 |
| 20260509132851 | 59 | 284 | 0.0 | 1.0 | 0.00 | 0.00 | 0.00 | 80 | 1002.9 |
| 20260509132349 | 59 | 277 | 2.0 | 3.0 | 0.00 | 0.00 | 0.00 | 80 | 1002.9 |
| 20260509131845 | 58 | 235 | 3.0 | 6.0 | 0.00 | 0.00 | 0.00 | 81 | 1003.1 |
| 20260509131342 | 59 | 146 | 1.0 | 2.0 | 0.00 | 0.00 | 0.00 | 81 | 1002.9 |
| 20260509130839 | 58 | 246 | 4.0 | 6.0 | 0.00 | 0.00 | 0.00 | 82 | 1003.0 |
| 20260509130334 | 58 | 211 | 1.0 | 2.0 | 0.00 | 0.00 | 0.00 | 83 | 1003.1 |
| 20260509125831 | 58 | 269 | 1.0 | 1.0 | 0.00 | 0.00 | 0.00 | 84 | 1003.3 |
| 20260509125327 | 58 | 274 | 2.0 | 2.0 | 0.00 | 0.00 | 0.00 | 83 | 1003.3 |
| 20260509124824 | 58 | 341 | 3.0 | 3.0 | 0.00 | 0.00 | 0.00 | 84 | 1003.3 |
| 20260509124321 | 57 | 286 | 3.0 | 3.0 | 0.00 | 0.00 | 0.00 | 85 | 1003.4 |
| 20260509123819 | 56 | 271 | 3.0 | 3.0 | 0.00 | 0.00 | 0.00 | 86 | 1003.2 |
| 20260509123316 | 56 | 249 | 3.0 | 3.0 | 0.00 | 0.00 | 0.00 | 86 | 1003.4 |
| 20260509122811 | 56 | 293 | 4.0 | 5.0 | 0.00 | 0.00 | 0.00 | 86 | 1003.3 |
| 20260509122309 | 56 | 248 | 3.0 | 5.0 | 0.00 | 0.00 | 0.00 | 87 | 1003.3 |
| 20260509121805 | 55 | 274 | 1.0 | 2.0 | 0.00 | 0.00 | 0.00 | 88 | 1003.0 |
| 20260509121302 | 54 | 245 | 1.0 | 1.0 | 0.00 | 0.00 | 0.00 | 88 | 1003.2 |
| 20260509120801 | 54 | 235 | 1.0 | 1.0 | 0.00 | 0.00 | 0.00 | 89 | 1003.2 |
| 20260509120258 | 54 | 180 | 1.0 | 1.0 | 0.00 | 0.00 | 0.00 | 89 | 1003.2 |
| 20260509115756 | 53 | 239 | 2.0 | 2.0 | 0.00 | 0.00 | 0.00 | 90 | 1003.2 |
| 20260509115253 | 53 | 220 | 3.0 | 3.0 | 0.00 | 0.00 | 0.00 | 91 | 1003.2 |
| 20260509114751 | 53 | 270 | 1.0 | 2.0 | 0.00 | 0.00 | 0.00 | 91 | 1003.1 |
| 20260509114249 | 53 | 313 | 2.0 | 2.0 | 0.00 | 0.00 | 0.00 | 90 | 1003.2 |
| 20260509113748 | 53 | 245 | 4.0 | 7.0 | 0.00 | 0.00 | 0.00 | 90 | 1002.9 |
| 20260509113245 | 53 | 239 | 1.0 | 1.0 | 0.00 | 0.00 | 0.00 | 90 | 1002.8 |
| 20260509112741 | 53 | 206 | 2.0 | 3.0 | 0.00 | 0.00 | 0.00 | 90 | 1002.8 |
| 20260509112239 | 53 | 252 | 1.0 | 1.0 | 0.00 | 0.00 | 0.00 | 90 | 1002.9 |
| 20260509111736 | 53 | 211 | 2.0 | 3.0 | 0.00 | 0.00 | 0.00 | 90 | 1002.8 |
| 20260509111232 | 53 | 243 | 2.0 | 3.0 | 0.00 | 0.00 | 0.00 | 90 | 1002.7 |
| 20260509110730 | 53 | 219 | 2.0 | 2.0 | 0.00 | 0.00 | 0.00 | 90 | 1002.6 |
| 20260509110226 | 52 | 166 | 1.0 | 2.0 | 0.00 | 0.00 | 0.00 | 91 | 1002.4 |
| 20260509105724 | 52 | 203 | 0.0 | 1.0 | 0.00 | 0.00 | 0.00 | 91 | 1002.6 |
| 20260509105222 | 52 | 175 | 0.0 | 1.0 | 0.00 | 0.00 | 0.00 | 91 | 1002.5 |
| 20260509104719 | 52 | 183 | 0.0 | 1.0 | 0.00 | 0.00 | 0.00 | 91 | 1002.5 |
| 20260509104215 | 53 | 237 | 1.0 | 1.0 | 0.00 | 0.00 | 0.00 | 91 | 1002.4 |
| 20260509103714 | 53 | 153 | 2.0 | 2.0 | 0.00 | 0.00 | 0.00 | 91 | 1002.5 |
| 20260509103210 | 53 | 251 | 1.0 | 2.0 | 0.00 | 0.00 | 0.00 | 91 | 1002.8 |
| 20260509102709 | 53 | 249 | 0.0 | 0.0 | 0.00 | 0.00 | 0.00 | 91 | 1002.7 |
| 20260509102205 | 53 | 270 | 2.0 | 2.0 | 0.00 | 0.00 | 0.00 | 91 | 1002.8 |
| 20260509101702 | 53 | 203 | 1.0 | 2.0 | 0.00 | 0.00 | 0.00 | 91 | 1002.8 |
| 20260509101158 | 53 | 246 | 1.0 | 2.0 | 0.00 | 0.00 | 0.00 | 91 | 1002.8 |
| 20260509100656 | 53 | 170 | 1.0 | 1.0 | 0.00 | 0.00 | 0.00 | 91 | 1002.5 |
| 20260509100152 | 53 | 230 | 3.0 | 5.0 | 0.00 | 0.00 | 0.00 | 91 | 1002.6 |
| 20260509095650 | 53 | 222 | 2.0 | 2.0 | 0.00 | 0.00 | 0.00 | 91 | 1002.5 |
| 20260509095147 | 53 | 220 | 0.0 | 1.0 | 0.00 | 0.00 | 0.00 | 91 | 1002.4 |
| 20260509094643 | 53 | 122 | 1.0 | 1.0 | 0.00 | 0.00 | 0.00 | 91 | 1002.5 |
| 20260509094140 | 53 | 170 | 2.0 | 2.0 | 0.00 | 0.00 | 0.00 | 91 | 1002.4 |
| 20260509093639 | 53 | 194 | 2.0 | 3.0 | 0.00 | 0.00 | 0.00 | 91 | 1002.5 |
| 20260509093135 | 53 | 210 | 2.0 | 3.0 | 0.00 | 0.00 | 0.00 | 91 | 1002.8 |
| 20260509092633 | 53 | 174 | 2.0 | 2.0 | 0.00 | 0.00 | 0.00 | 91 | 1002.6 |
| 20260509092132 | 53 | 319 | 0.0 | 1.0 | 0.00 | 0.00 | 0.00 | 91 | 1003.0 |
| 20260509091630 | 53 | 157 | 1.0 | 2.0 | 0.00 | 0.00 | 0.00 | 91 | 1002.8 |
| 20260509091125 | 53 | 289 | 2.0 | 2.0 | 0.00 | 0.00 | 0.00 | 91 | 1002.9 |
| 20260509090623 | 53 | 208 | 1.0 | 2.0 | 0.00 | 0.00 | 0.00 | 91 | 1003.0 |
| 20260509090120 | 53 | 272 | 3.0 | 6.0 | 0.00 | 0.00 | 0.00 | 91 | 1003.1 |
| 20260509085618 | 53 | 286 | 1.0 | 2.0 | 0.00 | 0.00 | 0.00 | 91 | 1003.0 |
| 20260509085113 | 53 | 189 | 1.0 | 2.0 | 0.00 | 0.00 | 0.00 | 91 | 1003.1 |
| 20260509084611 | 53 | 174 | 0.0 | 1.0 | 0.00 | 0.00 | 0.00 | 91 | 1003.0 |
| 20260509084108 | 53 | 187 | 3.0 | 3.0 | 0.00 | 0.00 | 0.00 | 91 | 1003.0 |
| 20260509083605 | 53 | 202 | 2.0 | 3.0 | 0.00 | 0.00 | 0.00 | 91 | 1003.1 |
| 20260509083102 | 53 | 282 | 2.0 | 3.0 | 0.00 | 0.00 | 0.00 | 91 | 1003.1 |
| 20260509082559 | 53 | 219 | 1.0 | 2.0 | 0.00 | 0.00 | 0.00 | 90 | 1003.0 |
| 20260509082056 | 53 | 132 | 2.0 | 3.0 | 0.00 | 0.00 | 0.00 | 90 | 1003.0 |
| 20260509081553 | 53 | 259 | 2.0 | 2.0 | 0.00 | 0.00 | 0.00 | 90 | 1003.2 |
| 20260509081050 | 53 | 222 | 1.0 | 1.0 | 0.00 | 0.00 | 0.00 | 90 | 1003.0 |
| 20260509080548 | 53 | 219 | 3.0 | 5.0 | 0.00 | 0.00 | 0.00 | 90 | 1003.1 |
| 20260509080046 | 53 | 194 | 1.0 | 1.0 | 0.00 | 0.00 | 0.00 | 90 | 1002.9 |
| 20260509075543 | 53 | 204 | 0.0 | 1.0 | 0.00 | 0.00 | 0.00 | 90 | 1003.2 |
| 20260509075041 | 53 | 217 | 1.0 | 1.0 | 0.00 | 0.00 | 0.00 | 90 | 1003.1 |
| 20260509074537 | 53 | 238 | 3.0 | 5.0 | 0.00 | 0.00 | 0.00 | 90 | 1003.3 |
| 20260509074034 | 53 | 214 | 1.0 | 1.0 | 0.00 | 0.00 | 0.00 | 90 | 1003.2 |
| 20260509073530 | 53 | 216 | 3.0 | 5.0 | 0.00 | 0.00 | 0.00 | 90 | 1003.1 |
| 20260509073027 | 53 | 208 | 1.0 | 2.0 | 0.00 | 0.00 | 0.00 | 89 | 1003.4 |
| 20260509072523 | 53 | 210 | 1.0 | 2.0 | 0.00 | 0.00 | 0.00 | 89 | 1003.3 |
| 20260509072021 | 53 | 208 | 2.0 | 5.0 | 0.00 | 0.00 | 0.00 | 89 | 1003.6 |
| 20260509071517 | 53 | 235 | 5.0 | 7.0 | 0.00 | 0.00 | 0.00 | 89 | 1003.7 |
| 20260509071015 | 54 | 208 | 2.0 | 3.0 | 0.00 | 0.00 | 0.00 | 89 | 1003.6 |
| 20260509070512 | 54 | 203 | 2.0 | 2.0 | 0.00 | 0.00 | 0.00 | 89 | 1003.7 |